Year,Month,Day,Hour,Minute,Value (Times are PST for temperature in C)
2009,07,15,07,19,11.40
2009,07,15,07,20,11.40
2009,07,15,07,21,11.40
2009,07,15,07,22,11.50
2009,07,15,07,23,11.50
2009,07,15,07,24,11.60
2009,07,15,07,25,11.60
2009,07,15,07,26,11.70
2009,07,15,07,27,11.80
2009,07,15,07,28,11.80
2009,07,15,07,29,11.90
2009,07,15,07,30,12.00
2009,07,15,07,31,12.00
2009,07,15,07,32,12.10
2009,07,15,07,33,12.10
2009,07,15,07,34,12.20
2009,07,15,07,35,12.20
2009,07,15,07,36,12.30
2009,07,15,07,37,12.30
2009,07,15,07,38,12.40
2009,07,15,07,39,12.40
2009,07,15,07,40,12.50
2009,07,15,07,41,12.50
2009,07,15,07,42,12.60
2009,07,15,07,43,12.60
2009,07,15,07,44,12.70
2009,07,15,07,45,12.70
2009,07,15,07,46,12.80
2009,07,15,07,47,12.90
2009,07,15,07,48,12.90
2009,07,15,07,49,13.00
2009,07,15,07,50,13.10
2009,07,15,07,51,13.10
2009,07,15,07,52,13.20
2009,07,15,07,53,13.30
2009,07,15,07,54,13.30
2009,07,15,07,55,13.40
2009,07,15,07,56,13.50
2009,07,15,07,57,13.60
2009,07,15,07,58,13.80
2009,07,15,07,59,13.90
2009,07,15,08,00,14.00
2009,07,15,08,01,14.10
2009,07,15,08,02,14.20
2009,07,15,08,03,14.30
2009,07,15,08,04,14.30
2009,07,15,08,05,14.40
2009,07,15,08,06,14.50
2009,07,15,08,07,14.60
2009,07,15,08,08,14.60
2009,07,15,08,09,14.60
2009,07,15,08,10,14.60
2009,07,15,08,11,14.70
2009,07,15,08,12,14.70
2009,07,15,08,13,14.80
2009,07,15,08,14,14.90
2009,07,15,08,15,15.00
2009,07,15,08,16,15.00
2009,07,15,08,17,15.00
2009,07,15,08,18,15.10
2009,07,15,08,19,15.20
2009,07,15,08,20,15.30
2009,07,15,08,21,15.30
2009,07,15,08,22,15.40
2009,07,15,08,23,15.50
2009,07,15,08,24,15.50
2009,07,15,08,25,15.50
2009,07,15,08,26,15.50
2009,07,15,08,27,15.50
2009,07,15,08,28,15.50
2009,07,15,08,29,15.50
2009,07,15,08,30,15.50
2009,07,15,08,31,15.40
2009,07,15,08,32,15.30
2009,07,15,08,33,15.30
2009,07,15,08,34,15.40
2009,07,15,08,35,15.40
2009,07,15,08,36,15.50
2009,07,15,08,37,15.50
2009,07,15,08,38,15.40
2009,07,15,08,39,15.40
2009,07,15,08,40,15.40
2009,07,15,08,41,15.30
2009,07,15,08,42,15.40
2009,07,15,08,43,15.50
2009,07,15,08,44,15.50
2009,07,15,08,45,15.60
2009,07,15,08,46,15.70
2009,07,15,08,47,15.80
2009,07,15,08,48,15.90
2009,07,15,08,49,16.00
2009,07,15,08,50,16.10
2009,07,15,08,51,16.10
2009,07,15,08,52,16.10
2009,07,15,08,53,16.10
2009,07,15,08,54,16.20
2009,07,15,08,55,16.20
2009,07,15,08,56,16.30
2009,07,15,08,57,16.30
2009,07,15,08,58,16.40
2009,07,15,08,59,16.40
2009,07,15,09,00,16.40
2009,07,15,09,01,16.40
2009,07,15,09,02,16.50
2009,07,15,09,03,16.50
2009,07,15,09,04,16.60
2009,07,15,09,05,16.70
2009,07,15,09,06,16.80
2009,07,15,09,07,16.80
2009,07,15,09,08,16.90
2009,07,15,09,09,16.90
2009,07,15,09,10,17.00
2009,07,15,09,11,17.00
2009,07,15,09,12,17.00
2009,07,15,09,13,17.00
2009,07,15,09,14,17.00
2009,07,15,09,15,17.00
2009,07,15,09,16,17.10
2009,07,15,09,17,17.10
2009,07,15,09,18,17.10
2009,07,15,09,19,17.10
2009,07,15,09,20,17.20
2009,07,15,09,21,17.20
2009,07,15,09,22,17.20
2009,07,15,09,23,17.30
2009,07,15,09,24,17.30
2009,07,15,09,25,17.30
2009,07,15,09,26,17.30
2009,07,15,09,27,17.40
2009,07,15,09,28,17.40
2009,07,15,09,29,17.50
2009,07,15,09,30,17.50
2009,07,15,09,31,17.60
2009,07,15,09,32,17.70
2009,07,15,09,33,17.80
2009,07,15,09,34,17.80
2009,07,15,09,35,17.80
2009,07,15,09,36,17.90
2009,07,15,09,37,18.00
2009,07,15,09,38,18.10
2009,07,15,09,39,18.20
2009,07,15,09,40,18.20
2009,07,15,09,41,18.30
2009,07,15,09,42,18.40
2009,07,15,09,43,18.40
2009,07,15,09,44,18.50
2009,07,15,09,45,18.50
2009,07,15,09,46,18.40
2009,07,15,09,47,18.50
2009,07,15,09,48,18.50
2009,07,15,09,49,18.60
2009,07,15,09,50,18.50
2009,07,15,09,51,18.40
2009,07,15,09,52,18.30
2009,07,15,09,53,18.30
2009,07,15,09,54,18.20
2009,07,15,09,55,18.20
2009,07,15,09,56,18.20
2009,07,15,09,57,18.30
2009,07,15,09,58,18.30
2009,07,15,09,59,18.40
2009,07,15,10,00,18.50
2009,07,15,10,01,18.70
2009,07,15,10,02,18.90
2009,07,15,10,03,19.00
2009,07,15,10,04,19.10
2009,07,15,10,05,19.10
2009,07,15,10,06,19.10
2009,07,15,10,07,19.10
2009,07,15,10,08,19.10
2009,07,15,10,09,19.10
2009,07,15,10,10,19.00
2009,07,15,10,11,19.00
2009,07,15,10,12,19.00
2009,07,15,10,13,19.00
2009,07,15,10,14,19.10
2009,07,15,10,15,19.10
2009,07,15,10,16,19.00
2009,07,15,10,17,19.00
2009,07,15,10,18,18.90
2009,07,15,10,19,18.90
2009,07,15,10,20,18.90
2009,07,15,10,21,19.00
2009,07,15,10,22,19.10
2009,07,15,10,23,19.20
2009,07,15,10,24,19.20
2009,07,15,10,25,19.20
2009,07,15,10,26,19.20
2009,07,15,10,27,19.10
2009,07,15,10,28,19.20
2009,07,15,10,29,19.30
2009,07,15,10,30,19.30
2009,07,15,10,31,19.40
2009,07,15,10,32,19.50
2009,07,15,10,33,19.50
2009,07,15,10,34,19.50
2009,07,15,10,35,19.40
2009,07,15,10,36,19.40
2009,07,15,10,37,19.30
2009,07,15,10,38,19.30
2009,07,15,10,39,19.40
2009,07,15,10,40,19.40
2009,07,15,10,41,19.50
2009,07,15,10,42,19.50
2009,07,15,10,43,19.60
2009,07,15,10,44,19.60
2009,07,15,10,45,19.60
2009,07,15,10,46,19.50
2009,07,15,10,47,19.50
2009,07,15,10,48,19.50
2009,07,15,10,49,19.60
2009,07,15,10,50,19.70
2009,07,15,10,51,19.70
2009,07,15,10,52,19.70
2009,07,15,10,53,19.80
2009,07,15,10,54,19.80
2009,07,15,10,55,20.00
2009,07,15,10,56,20.00
2009,07,15,10,57,20.10
2009,07,15,10,58,20.10
2009,07,15,10,59,20.10
2009,07,15,11,00,20.10
2009,07,15,11,01,20.10
2009,07,15,11,02,20.10
2009,07,15,11,03,20.00
2009,07,15,11,04,19.90
2009,07,15,11,05,19.70
2009,07,15,11,06,19.70
2009,07,15,11,07,19.50
2009,07,15,11,08,19.50
2009,07,15,11,09,19.40
2009,07,15,11,10,19.50
2009,07,15,11,11,19.40
2009,07,15,11,12,19.40
2009,07,15,11,13,19.40
2009,07,15,11,14,19.40
2009,07,15,11,15,19.40
2009,07,15,11,16,19.40
2009,07,15,11,17,19.30
2009,07,15,11,18,19.30
2009,07,15,11,19,19.30
2009,07,15,11,20,19.30
2009,07,15,11,21,19.50
2009,07,15,11,22,19.60
2009,07,15,11,23,19.70
2009,07,15,11,24,19.80
2009,07,15,11,25,19.80
2009,07,15,11,26,19.80
2009,07,15,11,27,19.80
2009,07,15,11,28,19.80
2009,07,15,11,29,19.80
2009,07,15,11,30,19.80
2009,07,15,11,31,19.70
2009,07,15,11,32,19.70
2009,07,15,11,33,19.70
2009,07,15,11,34,19.60
2009,07,15,11,35,19.70
2009,07,15,11,36,19.90
2009,07,15,11,37,20.10
2009,07,15,11,38,20.20
2009,07,15,11,39,20.10
2009,07,15,11,40,20.20
2009,07,15,11,41,20.20
2009,07,15,11,42,20.20
2009,07,15,11,43,20.10
2009,07,15,11,44,20.00
2009,07,15,11,45,20.00
2009,07,15,11,46,20.10
2009,07,15,11,47,20.10
2009,07,15,11,48,20.20
2009,07,15,11,49,20.10
2009,07,15,11,50,20.10
2009,07,15,11,51,20.00
2009,07,15,11,52,19.90
2009,07,15,11,53,19.90
2009,07,15,11,54,20.00
2009,07,15,11,55,19.90
2009,07,15,11,56,19.90
2009,07,15,11,57,19.90
2009,07,15,11,58,20.00
2009,07,15,11,59,20.00
2009,07,15,12,00,19.90
2009,07,15,12,01,19.90
2009,07,15,12,02,19.90
2009,07,15,12,03,19.90
2009,07,15,12,04,20.00
2009,07,15,12,05,20.00
2009,07,15,12,06,20.10
2009,07,15,12,07,20.10
2009,07,15,12,08,20.20
2009,07,15,12,09,20.30
2009,07,15,12,10,20.50
2009,07,15,12,11,20.60
2009,07,15,12,12,20.50
2009,07,15,12,13,20.40
2009,07,15,12,14,20.40
2009,07,15,12,15,20.40
2009,07,15,12,16,20.60
2009,07,15,12,17,20.70
2009,07,15,12,18,20.60
2009,07,15,12,19,20.70
2009,07,15,12,20,20.80
2009,07,15,12,21,20.80
2009,07,15,12,22,20.80
2009,07,15,12,23,20.80
2009,07,15,12,24,20.80
2009,07,15,12,25,20.80
2009,07,15,12,26,20.80
2009,07,15,12,27,20.80
2009,07,15,12,28,20.70
2009,07,15,12,29,20.70
2009,07,15,12,30,20.80
2009,07,15,12,31,20.90
2009,07,15,12,32,21.00
2009,07,15,12,33,21.00
2009,07,15,12,34,21.10
2009,07,15,12,35,21.30
2009,07,15,12,36,21.30
2009,07,15,12,37,21.30
2009,07,15,12,38,21.30
2009,07,15,12,39,21.30
2009,07,15,12,40,21.30
2009,07,15,12,41,21.30
2009,07,15,12,42,21.30
2009,07,15,12,43,21.30
2009,07,15,12,44,21.30
2009,07,15,12,45,21.30
2009,07,15,12,46,21.30
2009,07,15,12,47,21.30
2009,07,15,12,48,21.30
2009,07,15,12,49,21.30
2009,07,15,12,50,21.30
2009,07,15,12,51,21.30
2009,07,15,12,52,21.30
2009,07,15,12,53,21.30
2009,07,15,12,54,21.30
2009,07,15,12,55,21.40
2009,07,15,12,56,21.60
2009,07,15,12,57,21.60
2009,07,15,12,58,21.50
2009,07,15,12,59,21.40
2009,07,15,13,00,21.40
2009,07,15,13,01,21.30
2009,07,15,13,02,21.40
2009,07,15,13,03,21.50
2009,07,15,13,04,21.50
2009,07,15,13,05,21.60
2009,07,15,13,06,21.60
2009,07,15,13,07,21.50
2009,07,15,13,08,21.40
2009,07,15,13,09,21.40
2009,07,15,13,10,21.40
2009,07,15,13,11,21.30
2009,07,15,13,12,21.50
2009,07,15,13,13,21.70
2009,07,15,13,14,21.80
2009,07,15,13,15,21.80
2009,07,15,13,16,21.90
2009,07,15,13,17,21.90
2009,07,15,13,18,21.90
2009,07,15,13,19,21.80
2009,07,15,13,20,21.80
2009,07,15,13,21,21.80
2009,07,15,13,22,21.70
2009,07,15,13,23,21.60
2009,07,15,13,24,21.60
2009,07,15,13,25,21.60
2009,07,15,13,26,21.70
2009,07,15,13,27,21.60
2009,07,15,13,28,21.60
2009,07,15,13,29,21.70
2009,07,15,13,30,21.80
2009,07,15,13,31,21.90
2009,07,15,13,32,21.80
2009,07,15,13,33,21.80
2009,07,15,13,34,21.80
2009,07,15,13,35,21.70
2009,07,15,13,36,21.60
2009,07,15,13,37,21.60
2009,07,15,13,38,21.60
2009,07,15,13,39,21.70
2009,07,15,13,40,21.80
2009,07,15,13,41,21.90
2009,07,15,13,42,21.80
2009,07,15,13,43,21.80
2009,07,15,13,44,21.80
2009,07,15,13,45,22.00
2009,07,15,13,46,22.00
2009,07,15,13,47,21.90
2009,07,15,13,48,21.90
2009,07,15,13,49,22.00
2009,07,15,13,50,22.10
2009,07,15,13,51,22.20
2009,07,15,13,52,22.40
2009,07,15,13,53,22.50
2009,07,15,13,54,22.50
2009,07,15,13,55,22.40
2009,07,15,13,56,22.40
2009,07,15,13,57,22.40
2009,07,15,13,58,22.30
2009,07,15,13,59,22.10
2009,07,15,14,00,21.90
2009,07,15,14,01,21.90
2009,07,15,14,02,21.90
2009,07,15,14,03,21.80
2009,07,15,14,04,21.80
2009,07,15,14,05,21.90
2009,07,15,14,06,21.90
2009,07,15,14,07,22.00
2009,07,15,14,08,22.10
2009,07,15,14,09,22.20
2009,07,15,14,10,22.30
2009,07,15,14,11,22.30
2009,07,15,14,12,22.40
2009,07,15,14,13,22.50
2009,07,15,14,14,22.60
2009,07,15,14,15,22.80
2009,07,15,14,16,22.80
2009,07,15,14,17,22.80
2009,07,15,14,18,22.80
2009,07,15,14,19,22.80
2009,07,15,14,20,22.90
2009,07,15,14,21,22.90
2009,07,15,14,22,22.70
2009,07,15,14,23,22.60
2009,07,15,14,24,22.60
2009,07,15,14,25,22.50
2009,07,15,14,26,22.40
2009,07,15,14,27,22.50
2009,07,15,14,28,22.50
2009,07,15,14,29,22.50
2009,07,15,14,30,22.40
2009,07,15,14,31,22.20
2009,07,15,14,32,22.30
2009,07,15,14,33,22.20
2009,07,15,14,34,22.20
2009,07,15,14,35,22.20
2009,07,15,14,36,22.20
2009,07,15,14,37,22.10
2009,07,15,14,38,22.00
2009,07,15,14,39,22.00
2009,07,15,14,40,22.00
2009,07,15,14,41,21.90
2009,07,15,14,42,22.00
2009,07,15,14,43,22.10
2009,07,15,14,44,22.10
2009,07,15,14,45,22.20
2009,07,15,14,46,22.30
2009,07,15,14,47,22.30
2009,07,15,14,48,22.30
2009,07,15,14,49,22.20
2009,07,15,14,50,22.20
2009,07,15,14,51,22.20
2009,07,15,14,52,22.30
2009,07,15,14,53,22.30
2009,07,15,14,54,22.20
2009,07,15,14,55,22.20
2009,07,15,14,56,22.10
2009,07,15,14,57,22.20
2009,07,15,14,58,22.20
2009,07,15,14,59,22.30
2009,07,15,15,00,22.30
2009,07,15,15,01,22.40
2009,07,15,15,02,22.50
2009,07,15,15,03,22.70
2009,07,15,15,04,22.80
2009,07,15,15,05,23.10
2009,07,15,15,06,23.40
2009,07,15,15,07,23.60
2009,07,15,15,08,23.70
2009,07,15,15,09,23.50
2009,07,15,15,10,23.40
2009,07,15,15,11,23.30
2009,07,15,15,12,23.20
2009,07,15,15,13,23.00
2009,07,15,15,14,22.80
2009,07,15,15,15,22.80
2009,07,15,15,16,22.80
2009,07,15,15,17,22.80
2009,07,15,15,18,22.80
2009,07,15,15,19,22.80
2009,07,15,15,20,22.70
2009,07,15,15,21,22.70
2009,07,15,15,22,22.70
2009,07,15,15,23,22.70
2009,07,15,15,24,22.80
2009,07,15,15,25,22.80
2009,07,15,15,26,22.80
2009,07,15,15,27,22.90
2009,07,15,15,28,22.90
2009,07,15,15,29,22.90
2009,07,15,15,30,22.80
2009,07,15,15,31,22.80
2009,07,15,15,32,22.90
2009,07,15,15,33,22.80
2009,07,15,15,34,22.80
2009,07,15,15,35,22.70
2009,07,15,15,36,22.80
2009,07,15,15,37,22.70
2009,07,15,15,38,22.60
2009,07,15,15,39,22.70
2009,07,15,15,40,22.80
2009,07,15,15,41,23.00
2009,07,15,15,42,23.10
2009,07,15,15,43,23.20
2009,07,15,15,44,23.20
2009,07,15,15,45,23.20
2009,07,15,15,46,23.10
2009,07,15,15,47,23.10
2009,07,15,15,48,22.90
2009,07,15,15,49,22.80
2009,07,15,15,50,22.80
2009,07,15,15,51,22.70
2009,07,15,15,52,22.60
2009,07,15,15,53,22.50
2009,07,15,15,54,22.50
2009,07,15,15,55,22.40
2009,07,15,15,56,22.40
2009,07,15,15,57,22.40
2009,07,15,15,58,22.30
2009,07,15,15,59,22.30
2009,07,15,16,00,22.40
2009,07,15,16,01,22.40
2009,07,15,16,02,22.40
2009,07,15,16,03,22.40
2009,07,15,16,04,22.50
2009,07,15,16,05,22.50
2009,07,15,16,06,22.50
2009,07,15,16,07,22.60
2009,07,15,16,08,22.60
2009,07,15,16,09,22.70
2009,07,15,16,10,22.80
2009,07,15,16,11,22.80
2009,07,15,16,12,23.00
2009,07,15,16,13,23.20
2009,07,15,16,14,23.30
2009,07,15,16,15,23.50
2009,07,15,16,16,23.60
2009,07,15,16,17,23.50
2009,07,15,16,18,23.50
2009,07,15,16,19,23.60
2009,07,15,16,20,23.60
2009,07,15,16,21,23.50
2009,07,15,16,22,23.40
2009,07,15,16,23,23.40
2009,07,15,16,24,23.50
2009,07,15,16,25,23.60
2009,07,15,16,26,23.60
2009,07,15,16,27,23.70
2009,07,15,16,28,23.80
2009,07,15,16,29,23.80
2009,07,15,16,30,24.00
2009,07,15,16,31,24.00
2009,07,15,16,32,23.90
2009,07,15,16,33,23.90
2009,07,15,16,34,23.90
2009,07,15,16,35,23.80
2009,07,15,16,36,23.60
2009,07,15,16,37,23.60
2009,07,15,16,38,23.50
2009,07,15,16,39,23.40
2009,07,15,16,40,23.40
2009,07,15,16,41,23.30
2009,07,15,16,42,23.20
2009,07,15,16,43,23.10
2009,07,15,16,44,23.10
2009,07,15,16,45,23.00
2009,07,15,16,46,23.00
2009,07,15,16,47,23.00
2009,07,15,16,48,23.10
2009,07,15,16,49,23.10
2009,07,15,16,50,23.00
2009,07,15,16,51,23.00
2009,07,15,16,52,23.00
2009,07,15,16,53,23.00
2009,07,15,16,54,22.90
2009,07,15,16,55,23.00
2009,07,15,16,56,23.10
2009,07,15,16,57,23.30
2009,07,15,16,58,23.30
2009,07,15,16,59,23.30
2009,07,15,17,00,23.20
2009,07,15,17,01,23.20
2009,07,15,17,02,23.20
2009,07,15,17,03,23.20
2009,07,15,17,04,23.10
2009,07,15,17,05,23.10
2009,07,15,17,06,23.00
2009,07,15,17,07,23.00
2009,07,15,17,08,23.00
2009,07,15,17,09,23.00
2009,07,15,17,10,23.00
2009,07,15,17,11,22.90
2009,07,15,17,12,22.90
2009,07,15,17,13,22.90
2009,07,15,17,14,22.80
2009,07,15,17,15,22.80
2009,07,15,17,16,22.70
2009,07,15,17,17,22.70
2009,07,15,17,18,22.80
2009,07,15,17,19,22.80
2009,07,15,17,20,22.70
2009,07,15,17,21,22.70
2009,07,15,17,22,22.70
2009,07,15,17,23,22.80
2009,07,15,17,24,22.90
2009,07,15,17,25,23.10
2009,07,15,17,26,23.20
2009,07,15,17,27,23.20
2009,07,15,17,28,23.30
2009,07,15,17,29,23.40
2009,07,15,17,30,23.50
2009,07,15,17,31,23.60
2009,07,15,17,32,23.50
2009,07,15,17,33,23.40
2009,07,15,17,34,23.40
2009,07,15,17,35,23.30
2009,07,15,17,36,23.20
2009,07,15,17,37,23.20
2009,07,15,17,38,23.20
2009,07,15,17,39,23.30
2009,07,15,17,40,23.30
2009,07,15,17,41,23.30
2009,07,15,17,42,23.20
2009,07,15,17,43,23.20
2009,07,15,17,44,23.30
2009,07,15,17,45,23.30
2009,07,15,17,46,23.30
2009,07,15,17,47,23.40
2009,07,15,17,48,23.50
2009,07,15,17,49,23.70
2009,07,15,17,50,23.70
2009,07,15,17,51,23.60
2009,07,15,17,52,23.50
2009,07,15,17,53,23.30
2009,07,15,17,54,23.30
2009,07,15,17,55,23.20
2009,07,15,17,56,23.20
2009,07,15,17,57,23.10
2009,07,15,17,58,23.10
2009,07,15,17,59,23.10
2009,07,15,18,00,23.00
2009,07,15,18,01,23.00
2009,07,15,18,02,22.90
2009,07,15,18,03,22.90
2009,07,15,18,04,23.00
2009,07,15,18,05,23.10
2009,07,15,18,06,23.20
2009,07,15,18,07,23.30
2009,07,15,18,08,23.20
2009,07,15,18,09,23.10
2009,07,15,18,10,23.00
2009,07,15,18,11,22.90
2009,07,15,18,12,22.90
2009,07,15,18,13,22.90
2009,07,15,18,14,22.90
2009,07,15,18,15,22.90
2009,07,15,18,16,22.80
2009,07,15,18,17,22.80
2009,07,15,18,18,22.80
2009,07,15,18,19,22.80
2009,07,15,18,20,22.80
2009,07,15,18,21,22.80
2009,07,15,18,22,22.80
2009,07,15,18,23,22.80
2009,07,15,18,24,22.80
2009,07,15,18,25,22.80
2009,07,15,18,26,22.80
2009,07,15,18,27,22.90
2009,07,15,18,28,22.90
2009,07,15,18,29,22.90
2009,07,15,18,30,22.90
2009,07,15,18,31,22.90
2009,07,15,18,32,22.80
2009,07,15,18,33,22.80
2009,07,15,18,34,22.80
2009,07,15,18,35,22.80
2009,07,15,18,36,22.70
2009,07,15,18,37,22.70
2009,07,15,18,38,22.70
2009,07,15,18,39,22.70
2009,07,15,18,40,22.70
2009,07,15,18,41,22.80
2009,07,15,18,42,22.80
2009,07,15,18,43,22.70
2009,07,15,18,44,22.80
2009,07,15,18,45,22.80
2009,07,15,18,46,22.90
2009,07,15,18,47,22.90
2009,07,15,18,48,22.90
2009,07,15,18,49,23.00
2009,07,15,18,50,23.00
2009,07,15,18,51,23.00
2009,07,15,18,52,23.00
2009,07,15,18,53,22.90
2009,07,15,18,54,22.70
2009,07,15,18,55,22.70
2009,07,15,18,56,22.60
2009,07,15,18,57,22.50
2009,07,15,18,58,22.40
2009,07,15,18,59,22.30
2009,07,15,19,00,22.30
2009,07,15,19,01,22.20
2009,07,15,19,02,22.10
2009,07,15,19,03,22.00
2009,07,15,19,04,22.00
2009,07,15,19,05,21.90
2009,07,15,19,06,21.90
2009,07,15,19,07,21.90
2009,07,15,19,08,21.90
2009,07,15,19,09,21.90
2009,07,15,19,10,21.90
2009,07,15,19,11,21.90
2009,07,15,19,12,21.80
2009,07,15,19,13,21.80
2009,07,15,19,14,21.80
2009,07,15,19,15,21.80
2009,07,15,19,16,21.70
2009,07,15,19,17,21.70
2009,07,15,19,18,21.70
2009,07,15,19,19,21.60
2009,07,15,19,20,21.60
2009,07,15,19,21,21.60
2009,07,15,19,22,21.60
2009,07,15,19,23,21.60
2009,07,15,19,24,21.60
2009,07,15,19,25,21.60
2009,07,15,19,26,21.60
2009,07,15,19,27,21.60
2009,07,15,19,28,21.70
2009,07,15,19,29,21.70
2009,07,15,19,30,21.70
2009,07,15,19,31,21.60
2009,07,15,19,32,21.60
2009,07,15,19,33,21.50
2009,07,15,19,34,21.40
2009,07,15,19,35,21.30
2009,07,15,19,36,21.20
2009,07,15,19,37,21.00
2009,07,15,19,38,20.90
2009,07,15,19,39,20.80
2009,07,15,19,40,20.70
2009,07,15,19,41,20.60
2009,07,15,19,42,20.50
2009,07,15,19,43,20.40
2009,07,15,19,44,20.30
2009,07,15,19,45,20.30
2009,07,15,19,46,20.30
2009,07,15,19,47,20.30
2009,07,15,19,48,20.30
2009,07,15,19,49,20.30
2009,07,15,19,50,20.30
2009,07,15,19,51,20.30
2009,07,15,19,52,20.30
2009,07,15,19,53,20.30
2009,07,15,19,54,20.30
2009,07,15,19,55,20.30
